Regional Weather Roundup
Issued by NWS Midland/Odessa, TX

Skip options and go directly to product.
Home | Oldest Version | Previous Version | Current Version | All | Graphics & Text | Save Text | Print | Product List | Glossary On

Skip product version selection by date and time.   
058
ASUS44 KMAF 180110
RWRMAF
MIDLAND AREA WEATHER ROUNDUP
NATIONAL WEATHER SERVICE MIDLAND TX
800 PM CDT WED SEP 17 2014

...IN SOUTHWEST TEXAS AND SOUTHEAST NEW MEXICO...

CITY           SKY/WX    TMP DP  RH WIND       PRES   REMARKS
ALPINE         PTCLDY    76  61  59 SE7       30.06S
ANDREWS        MOCLDY    80  65  59 SE3       29.95R
ARTESIA        NOT AVBL
BIG SPRING     MOCLDY    79  71  76 E8        29.96R
CARLSBAD       MOCLDY    78  73  84 NW5       29.95S
DRYDEN           N/A     88  66  48 SE9       29.88R
FORT STOCKTON  PTCLDY    82  63  52 SE10      29.92S
GUAD PASS      CLOUDY    67  61  81 NE22      30.08F
HOBBS          MOCLDY    77  68  73 N16       30.01R
MARFA          CLOUDY    77  59  53 E7        30.05S
MIDLAND AIRPK  NOT AVBL
MIDLAND INTL   CLEAR     86  62  44 E10       29.92R
ODESSA         PTCLDY    85  60  42 S3        29.93R
PECOS          PTCLDY    85  62  46 E3        29.89R
PRESIDIO       FAIR      90  59  35 N5        29.86S
SEMINOLE       MOCLDY    72  65  78 NE12      29.99R
SNYDER         TSTM      70  67  90 NE9       29.97R
WINK           PTCLDY    86  63  45 SE8       29.89S
$$
...OTHER STATIONS IN TEXAS...

CITY           SKY/WX    TMP DP  RH WIND       PRES   REMARKS
ABILENE        CLOUDY    77  70  79 SE8       29.92F
AMARILLO       CLOUDY    70  64  81 CALM      29.98F
AUSTIN         CLOUDY    84  71  65 CALM      29.86R
BROWNSVILLE    CLEAR     82  76  81 SE7       29.86R
CORPUS CHRISTI MOCLDY    83  76  79 SE13      29.86R
DALLAS FTW     CLOUDY    82  67  60 S5        29.88R
DEL RIO        CLEAR     87  71  58 E7        29.82R
EL PASO        CLOUDY    80  63  55 NE16      29.93F
HOUSTON INT    CLOUDY    76  75  97 SE7       29.90S
LUBBOCK        CLOUDY    67  66  97 SE8       29.99F
SAN ANGELO     MOCLDY    81  68  64 NE13      29.90R
SAN ANTONIO    CLOUDY    84  73  69 SE6       29.87R
WACO           CLOUDY    83  70  64 SE13      29.87R
WICHITA FALLS  NOT AVBL
$$
...OTHER LOCATIONS IN NEW MEXICO...

CITY           SKY/WX    TMP DP  RH WIND       PRES   REMARKS
ALAMAGORDO     MOCLDY    75  64  69 NW9       29.99S
ALBUQUERQUE    MOCLDY    68  57  68 SW7       30.08S
CANNON AFB     MOCLDY    69  64  86 SW3       30.03S
CLOVIS           N/A     66  63  88 S6        30.05S
HOLLOMAN AFB   CLOUDY    74  65  74 NW6       29.97F
ROSWELL        CLOUDY    73  65  75 NW6       29.99S
RUIDOSO        PTCLDY    61  59  94 S8        30.20R
SANTA FE       CLOUDY    66  49  54 CALM      30.13S
TRUTH OR CONSE CLOUDY    73  61  65 NE3       30.03S
TUCUMCARI      CLOUDY    73  60  63 SW8       29.98F
$$

USA.gov is the U.S. government's official web portal to all federal, state and local government web resources and services.